Weather History for Birchwood, AK

Change the Weather History Date:

Saturday, November 17, 2012

  Actual Average Record
Temperature  
Mean Temperature 11 °F -  
Max Temperature 17 °F 25 °F 46 °F (2000)
Min Temperature 5 °F 15 °F -7 °F (2003)
Degree Days  
Heating Degree Days 54    
Moisture  
Dew Point 8 °F    
Average Humidity 85    
Maximum Humidity 92    
Minimum Humidity 68    
Precipitation  
Precipitation 0.00 in - - ()
Sea Level Pressure  
Sea Level Pressure 29.24 in    
Wind  
Wind Speed 3 mph (SSE)    
Max Wind Speed 8 mph    
Max Gust Speed -    
Visibility 10 miles    
Events      
Averages and records for this station are not official NWS values.
T = Trace of Precipitation, MM = Missing Value Source: NWS Daily Summary

Daily Weather History Graph

Daily Weather History Graph

Search for Another Location

Airport:

Trip Planner

Search our weather history database for the weather conditions in past years. The results will help you decide how hot, cold, wet, or windy it might be!

Date:

Astronomy

Nov. 17, 2012 Rise Set
Actual Time 9:12 AM AKST 4:12 PM AKST
Civil Twilight 8:19 AM AKST 5:06 PM AKST
Nautical Twilight 7:24 AM AKST 6:01 PM AKST
Astronomical Twilight 6:32 AM AKST 6:52 PM AKST
Moon 1:01 PM AKST (11/17) 8:42 PM AKST (11/17)
Length of Visible Light 8h 46m
Length of Day
7h 00m
Waxing Crescent, 21% of the Moon is Illuminated
Nov 17
Waxing Crescent
Nov 20
First Quarter
Nov 28
Full
Dec 6
Last Quarter
Dec 12
New

Hourly Weather History & Observations

Time (AKST) Temp. Windchill Dew Point Humidity Pressure Visibility Wind Dir Wind Speed Gust Speed Precip Events Conditions
12:16 AM 10.4 °F 4.0 °F 6.8 °F 85% 29.46 in 10.0 mi SSE 3.5 mph - N/A   Clear
12:36 AM 8.6 °F 2.0 °F 6.8 °F 92% 29.46 in 10.0 mi SSE 3.5 mph - N/A   Clear
12:56 AM 10.4 °F 4.0 °F 6.8 °F 85% 29.45 in 10.0 mi ESE 3.5 mph - N/A   Clear
1:16 AM 10.4 °F 4.0 °F 6.8 °F 85% 29.44 in 10.0 mi ESE 3.5 mph - N/A   Clear
1:36 AM 10.4 °F 0.8 °F 6.8 °F 85% 29.44 in 10.0 mi ESE 5.8 mph - N/A   Clear
1:56 AM 8.6 °F 2.0 °F 6.8 °F 92% 29.43 in 10.0 mi ESE 3.5 mph - N/A   Clear
2:16 AM 12.2 °F 4.3 °F 6.8 °F 79% 29.43 in 10.0 mi ESE 4.6 mph - N/A   Scattered Clouds
2:36 AM 10.4 °F 2.2 °F 6.8 °F 85% 29.42 in 10.0 mi SE 4.6 mph - N/A   Mostly Cloudy
2:56 AM 8.6 °F - 6.8 °F 92% 29.42 in 10.0 mi Calm Calm - N/A   Scattered Clouds
3:16 AM 8.6 °F 0.1 °F 5.0 °F 85% 29.41 in 10.0 mi SSE 4.6 mph - N/A   Partly Cloudy
3:36 AM 6.8 °F -2.0 °F 3.2 °F 85% 29.40 in 10.0 mi SE 4.6 mph - N/A   Scattered Clouds
3:56 AM 10.4 °F 2.2 °F 6.8 °F 85% 29.40 in 10.0 mi ESE 4.6 mph - N/A   Mostly Cloudy
4:16 AM 12.2 °F - 6.8 °F 79% 29.39 in 10.0 mi Calm Calm - N/A   Overcast
4:36 AM 10.4 °F - 6.8 °F 85% 29.39 in 10.0 mi Calm Calm - N/A   Overcast
4:56 AM 10.4 °F 2.2 °F 6.8 °F 85% 29.38 in 10.0 mi SE 4.6 mph - N/A   Mostly Cloudy
5:16 AM 10.4 °F 4.0 °F 6.8 °F 85% 29.37 in 10.0 mi SE 3.5 mph - N/A   Mostly Cloudy
5:36 AM 8.6 °F 2.0 °F 5.0 °F 85% 29.36 in 10.0 mi ESE 3.5 mph - N/A   Partly Cloudy
5:56 AM 8.6 °F - 5.0 °F 85% 29.36 in 10.0 mi Calm Calm - N/A   Scattered Clouds
6:16 AM 6.8 °F -0.1 °F 5.0 °F 92% 29.36 in 10.0 mi SE 3.5 mph - N/A   Scattered Clouds
6:36 AM 6.8 °F -2.0 °F 3.2 °F 85% 29.34 in 10.0 mi SSE 4.6 mph - N/A   Partly Cloudy
6:56 AM 6.8 °F -0.1 °F 3.2 °F 85% 29.33 in 10.0 mi SSE 3.5 mph - N/A   Clear
7:16 AM 5.0 °F -6.9 °F 3.2 °F 92% 29.33 in 10.0 mi SE 6.9 mph - N/A   Clear
7:36 AM 6.8 °F -2.0 °F 3.2 °F 85% 29.32 in 10.0 mi SSE 4.6 mph - N/A   Mostly Cloudy
7:56 AM 6.8 °F - 5.0 °F 92% 29.31 in 10.0 mi Calm Calm - N/A   Overcast
8:16 AM 8.6 °F - 6.8 °F 92% 29.31 in 10.0 mi Calm Calm - N/A   Overcast
8:36 AM 10.4 °F 4.0 °F 8.6 °F 92% 29.30 in 10.0 mi SE 3.5 mph - N/A   Overcast
8:56 AM 12.2 °F - 8.6 °F 85% 29.29 in 10.0 mi Calm Calm - N/A   Overcast
9:16 AM 12.2 °F - 8.6 °F 85% 29.29 in 10.0 mi Calm Calm - N/A   Overcast
9:36 AM 12.2 °F 6.1 °F 10.4 °F 92% 29.28 in 10.0 mi South 3.5 mph - N/A   Overcast
9:56 AM 12.2 °F - 10.4 °F 92% 29.28 in 10.0 mi Calm Calm - N/A   Overcast
10:16 AM 14.0 °F 6.5 °F 10.4 °F 86% 29.27 in 10.0 mi South 4.6 mph - N/A   Overcast
10:36 AM 15.8 °F 8.6 °F 8.6 °F 73% 29.26 in 10.0 mi South 4.6 mph - N/A   Overcast
10:56 AM 14.0 °F 6.5 °F 10.4 °F 86% 29.25 in 10.0 mi South 4.6 mph - N/A   Overcast
11:16 AM 15.8 °F 8.6 °F 8.6 °F 73% 29.25 in 10.0 mi South 4.6 mph - N/A   Overcast
11:36 AM 15.8 °F 8.6 °F 6.8 °F 68% 29.24 in 10.0 mi SSW 4.6 mph - N/A   Scattered Clouds
11:56 AM 15.8 °F 7.2 °F 6.8 °F 68% 29.24 in 10.0 mi South 5.8 mph - N/A   Mostly Cloudy
12:16 PM 15.8 °F 7.2 °F 8.6 °F 73% 29.23 in 10.0 mi SSW 5.8 mph - N/A   Overcast
12:36 PM 15.8 °F 5.1 °F 10.4 °F 79% 29.22 in 10.0 mi South 8.1 mph - N/A   Overcast
12:56 PM 15.8 °F 10.2 °F 10.4 °F 79% 29.21 in 10.0 mi SSW 3.5 mph - N/A   Overcast
1:16 PM 15.8 °F - 10.4 °F 79% 29.20 in 10.0 mi Calm Calm - N/A   Overcast
1:36 PM 15.8 °F - 10.4 °F 79% 29.20 in 10.0 mi Calm Calm - N/A   Overcast
1:56 PM 17.6 °F - 10.4 °F 73% 29.19 in 10.0 mi Calm Calm - N/A   Overcast
2:16 PM 17.6 °F - 12.2 °F 79% 29.18 in 10.0 mi Calm Calm - N/A   Overcast
2:36 PM 17.6 °F 8.2 °F 10.4 °F 73% 29.18 in 10.0 mi South 6.9 mph - N/A   Overcast
2:56 PM 17.6 °F 10.7 °F 10.4 °F 73% 29.17 in 10.0 mi South 4.6 mph - N/A   Overcast
3:16 PM 17.6 °F 10.7 °F 10.4 °F 73% 29.16 in 10.0 mi SSW 4.6 mph - N/A   Overcast
3:36 PM 17.6 °F 12.3 °F 10.4 °F 73% 29.15 in 10.0 mi SSW 3.5 mph - N/A   Overcast
3:56 PM 15.8 °F 8.6 °F 10.4 °F 79% 29.15 in 10.0 mi South 4.6 mph - N/A   Scattered Clouds
4:16 PM 15.8 °F 10.2 °F 10.4 °F 79% 29.15 in 10.0 mi South 3.5 mph - N/A   Partly Cloudy
4:36 PM 14.0 °F - 10.4 °F 86% 29.14 in 10.0 mi Calm Calm - N/A   Clear
4:56 PM 12.2 °F 4.3 °F 10.4 °F 92% 29.14 in 10.0 mi SE 4.6 mph - N/A   Clear
5:16 PM 10.4 °F 4.0 °F 8.6 °F 92% 29.13 in 10.0 mi ESE 3.5 mph - N/A   Clear
5:36 PM 10.4 °F 4.0 °F 8.6 °F 92% 29.13 in 10.0 mi SE 3.5 mph - N/A   Clear
5:56 PM 10.4 °F 4.0 °F 8.6 °F 92% 29.12 in 10.0 mi SE 3.5 mph - N/A   Clear
6:16 PM 8.6 °F 2.0 °F 6.8 °F 92% 29.12 in 10.0 mi SSE 3.5 mph - N/A   Clear
6:36 PM 8.6 °F - 6.8 °F 92% 29.12 in 10.0 mi Calm Calm - N/A   Clear
6:56 PM 8.6 °F 0.1 °F 6.8 °F 92% 29.12 in 10.0 mi ESE 4.6 mph - N/A   Partly Cloudy
7:16 PM 8.6 °F 0.1 °F 6.8 °F 92% 29.12 in 10.0 mi ESE 4.6 mph - N/A   Partly Cloudy
7:36 PM 10.4 °F 0.8 °F 6.8 °F 85% 29.11 in 10.0 mi SE 5.8 mph - N/A   Clear
7:56 PM 8.6 °F 0.1 °F 6.8 °F 92% 29.11 in 10.0 mi ESE 4.6 mph - N/A   Partly Cloudy
8:16 PM 8.6 °F 2.0 °F 6.8 °F 92% 29.11 in 10.0 mi SE 3.5 mph - N/A   Mostly Cloudy
8:36 PM 8.6 °F 2.0 °F 6.8 °F 92% 29.10 in 10.0 mi ESE 3.5 mph - N/A   Mostly Cloudy
8:56 PM 10.4 °F - 8.6 °F 92% 29.10 in 10.0 mi Calm Calm - N/A   Overcast
9:16 PM 10.4 °F - 8.6 °F 92% 29.10 in 10.0 mi Calm Calm - N/A   Overcast
9:36 PM 12.2 °F - 8.6 °F 85% 29.10 in 10.0 mi Calm Calm - N/A   Overcast
9:56 PM 12.2 °F 4.3 °F 8.6 °F 85% 29.09 in 10.0 mi ESE 4.6 mph - N/A   Mostly Cloudy
10:16 PM 12.2 °F 6.1 °F 10.4 °F 92% 29.09 in 10.0 mi ESE 3.5 mph - N/A   Mostly Cloudy
10:36 PM 12.2 °F 6.1 °F 10.4 °F 92% 29.09 in 10.0 mi ESE 3.5 mph - N/A   Mostly Cloudy
10:56 PM 12.2 °F - 10.4 °F 92% 29.09 in 10.0 mi Calm Calm - N/A   Mostly Cloudy
11:16 PM 12.2 °F 6.1 °F 10.4 °F 92% 29.09 in 10.0 mi SE 3.5 mph - N/A   Mostly Cloudy
11:36 PM 12.2 °F 6.1 °F 10.4 °F 92% 29.08 in 10.0 mi SE 3.5 mph - N/A   Overcast
11:56 PM 12.2 °F 4.3 °F 10.4 °F 92% 29.08 in 10.0 mi SE 4.6 mph - N/A   Overcast